FW93366 Weather Reports


time (UTC)temp
F
wind
direction
speed
knots
gust
knots
rain 1hr
in
rain 24hr
in
rain mn
in
humidity
%
barometer
mb
20260504204546 53 330 4.3 9.6 0.00 0.04 0.01 68 1012.2
20260504203053 52 12 3.5 13.0 0.00 0.04 0.01 72 1012.3
20260504201546 52 348 4.3 13.0 0.00 0.04 0.01 70 1012.2
20260504200044 52 331 5.2 13.0 0.00 0.04 0.01 69 1012.2
20260504194540 54 348 1.7 13.0 0.00 0.04 0.01 69 1012.2
20260504193049 54 311 4.3 9.6 0.00 0.04 0.01 66 1012.2
20260504191542 55 341 3.5 7.0 0.00 0.04 0.01 64 1012.1
20260504190107 55 212 7.0 12.2 0.00 0.04 0.01 63 1012.1
20260504184544 56 244 4.3 11.3 0.00 0.04 0.01 61 1012.1
20260504183040 55 181 1.7 5.2 0.00 0.04 0.01 61 1012.1
20260504181544 53 155 0.9 3.5 0.00 0.04 0.01 65 1012.0
20260504180040 52 174 2.6 6.1 0.00 0.04 0.01 67 1012.4
20260504174537 51 184 3.5 9.6 0.00 0.04 0.01 73 1012.3
20260504173040 50 150 3.5 10.4 0.00 0.04 0.01 78 1012.5
20260504171539 51 201 4.3 10.4 0.00 0.04 0.01 72 1012.2
20260504081545 45 0 0.0 0.9 0.00 0.03 0.00 85 1012.6
20260504050116 50 0 0.0 0.0 0.00 0.03 0.03 77 1013.5
20260504044550 50 0 0.0 3.5 0.00 0.03 0.03 77 1013.5
20260504043042 50 0 0.0 2.6 0.00 0.03 0.03 77 1013.4
20260504041540 51 0 0.0 1.7 0.00 0.03 0.03 77 1013.4
20260504040046 51 0 0.0 1.7 0.00 0.03 0.03 77 1013.3
20260504034549 51 0 0.0 0.9 0.00 0.03 0.03 77 1013.1
20260504033054 51 0 0.0 1.7 0.00 0.03 0.03 75 1013.0
20260504031557 51 178 1.7 5.2 0.00 0.03 0.03 75 1012.8
20260504030043 53 0 0.9 2.6 0.00 0.03 0.03 71 1012.8
20260504024542 53 0 0.0 2.6 0.00 0.17 0.03 69 1012.8
20260504023046 53 0 0.0 3.5 0.00 0.17 0.03 66 1012.8
20260504021542 54 0 0.0 3.5 0.00 0.17 0.03 64 1012.5
20260504020040 54 0 0.0 4.3 0.00 0.17 0.03 65 1012.6
20260504014554 54 0 0.0 1.7 0.00 0.17 0.03 60 1012.9
20260504013048 54 0 0.0 0.0 0.00 0.17 0.03 60 1012.9
20260504011548 54 0 0.0 4.3 0.00 0.17 0.03 63 1013.1
20260504010053 54 182 2.6 7.8 0.00 0.17 0.03 66 1013.1
20260504004541 54 193 1.7 7.8 0.00 0.17 0.03 74 1013.1
20260504003042 54 0 0.0 1.7 0.00 0.17 0.03 74 1013.1
20260504001548 53 24 0.0 5.2 0.01 0.17 0.03 75 1012.8
20260504000049 51 28 0.9 3.5 0.01 0.17 0.03 78 1013.1
20260503234543 51 0 0.0 6.1 0.01 0.17 0.03 78 1013.2
20260503233048 51 238 3.5 7.0 0.01 0.17 0.03 76 1013.9
20260503231544 52 0 0.0 3.5 0.00 0.16 0.02 77 1014.5
20260503230048 52 0 0.0 7.0 0.00 0.16 0.02 74 1014.1
20260503224546 52 150 0.9 4.3 0.01 0.16 0.02 72 1014.1
20260503223042 51 178 4.3 13.0 0.01 0.16 0.02 72 1013.9
20260503221549 49 180 6.1 15.6 0.02 0.16 0.02 75 1014.1
20260503220058 50 196 4.3 15.6 0.02 0.16 0.02 73 1014.4
20260503214544 50 193 7.0 20.9 0.01 0.15 0.01 76 1014.8
20260503213040 49 172 13.9 25.2 0.01 0.15 0.01 76 1014.1
20260503211548 50 175 14.8 32.2 0.00 0.14 0.00 73 1013.8
20260503210055 58 144 18.2 29.5 0.00 0.14 0.00 48 1012.2